Location: Bonneuil
(46.1010°N, 2.9693°E)
Time: 15:53:09
(UTC+00:00)

Cosmos 1656 Rocket - Pass Details

Date: 09 April 2020
Orbit: 795 x 846 km, 71.1° (Epoch: 27 May)

Event Time Altitude Azimuth Distance (km) Brightness Sun altitude
Rises 19:04:23 0° 332° (NNW) 3,409 7.7 -6.9°
Reaches altitude 10° 19:06:51 10° 331° (NNW) 2,465 6.9 -7.3°
Maximum altitude 19:12:30 74° 247° (WSW) 867 3.9 -8.2°
Drops below altitude 10° 19:18:01 10° 163° (SSE) 2,417 5.7 -9.1°
Sets 19:20:26 0° 162° (SSE) 3,338 6.4 -9.5°
